Location: Camposanto
(44.7833°N, 11.1333°E)
Time: 20:43:32
(UTC+00:00)

Daily predictions for brighter satellites

Satellite Brightness Start Highest point End
(mag) Time Altitude Azimuth Time Altitude Azimuth Time Altitude Azimuth
CZ-4C R/B 2.8 18:27:31 10° SW 18:32:23 60° NW 18:38:17 10° NNE
Cosmos 2344 4.0 18:26:24 10° S 18:33:12 37° ESE 18:40:02 10° NE
Cosmos 2322 4.1 18:27:44 10° NNW 18:33:13 48° ENE 18:38:40 10° SE
Ariane Rocket 3.8 18:29:06 10° SE 18:33:33 33° ENE 18:38:02 10° N
Cosmos 1302 Rocket 4.0 18:29:14 10° NNW 18:34:35 80° ENE 18:39:51 10° SSE
Cosmos 1269 Rocket 4.0 18:29:23 10° SSW 18:34:41 80° ESE 18:40:02 10° NNE
Cosmos 2228 3.0 18:33:25 10° S 18:37:46 78° E 18:42:06 10° NNE
SL-08 RB Rocket 4.2 18:33:22 10° S 18:38:00 68° WSW 18:42:38 10° NNW
Okean-O 3.9 18:34:36 10° S 18:38:49 44° W 18:43:05 10° NNW
MetOp-A 4.2 18:34:53 10° SSE 18:40:12 69° ENE 18:45:32 10° N
ARGOS 4.2 18:36:07 10° S 18:41:20 50° W 18:46:34 10° NNW
Cosmos 482 Debris 4.2 18:38:38 10° WSW 18:41:37 46° NNW 18:43:44 10° NE
Cosmos 1408 3.2 18:39:09 10° N 18:42:29 36° ENE 18:45:47 10° SE
RESURS DK-1 3.3 18:40:26 10° SSE 18:43:54 27° ESE 18:47:24 10° NE
Cosmos 1300 4.0 18:41:34 10° SSW 18:45:14 46° WNW 18:48:55 10° N
CSL-04 Rocket 4.2 18:46:14 10° S 18:51:27 62° WSW 18:56:42 10° NNW
CENTAUR R/B 4.2 18:44:47 10° NW 18:52:40 48° WSW 19:01:04 10° S
Cosmos 2058 3.8 18:49:46 10° N 18:53:33 31° ENE 18:57:06 11° SE
CZ-2C R/B 3.6 18:50:20 10° N 18:55:22 51° WNW 19:00:25 10° SW
Cosmos 1992 Rocket 4.2 18:51:46 10° NNW 18:56:53 53° ENE 19:01:52 10° SE
Cosmos 2058 Rocket 3.2 18:53:14 10° SSE 18:57:26 50° E 19:01:39 10° NNE
DMSP B5D2-2 4.3 18:52:50 10° N 18:58:06 79° WNW 19:03:21 10° SSW
Cosmos 2360 Rocket 2.9 18:53:39 10° NNW 18:59:11 55° WSW 19:04:39 10° S
ATLAS 3B R/B 3.1 18:52:45 10° NNW 18:59:37 54° NE 19:05:56 13° ESE
COSMOS 2487 2.2 18:58:00 10° SSW 19:01:24 80° ESE 19:04:49 10° NNE
USA 186 2.2 18:59:15 10° S 19:02:28 63° W 19:05:36 10° NNW
COSMOS 2428 3.0 18:57:06 10° NNW 19:02:45 56° ENE 19:07:47 13° SE
Cosmos 1953 Rocket 3.5 18:58:49 10° N 19:03:13 89° W 19:07:32 10° S
USA 215 4.0 18:58:32 10° E 19:04:41 45° NNE 19:10:51 10° NW
SME Rocket 3.9 19:02:24 10° N 19:06:11 57° WNW 19:10:56 10° SSW
Cosmos 1092 Rocket 4.0 19:00:28 10° N 19:06:44 73° E 19:12:55 10° SSE
Cosmos 2333 4.3 19:02:02 10° NNW 19:07:49 83° WSW 19:13:32 10° SSE
Cosmos 1818 3.8 19:06:08 10° S 19:11:17 46° ESE 19:16:30 10° NE
FALCON 9 DEB 3.2 19:09:13 10° SW 19:12:33 52° SE 19:15:54 10° ENE
Cosmos 909 Rocket 4.2 19:06:58 10° S 19:13:04 48° ESE 19:19:09 10° NE
NOSS 0 Rocket 4.5 19:08:44 10° NNW 19:14:41 44° NE 19:19:05 18° ESE
ERS-2 3.9 19:12:09 10° N 19:15:31 36° WNW 19:18:52 10° SW
Cosmos 44 3.5 19:10:46 10° SSW 19:15:42 57° ESE 19:20:57 10° NE
Resurs 01 Rocket 2.3 19:12:45 17° SE 19:15:45 38° ENE 19:19:53 10° N
Cosmos 2219 Rocket 2.2 19:10:29 10° NNW 19:16:13 81° ENE 19:21:13 14° SSE
Cosmos 1455 2.0 19:15:01 10° S 19:18:45 81° E 19:22:30 10° N
Resurs 1-3 3.5 19:23:14 13° SSE 19:27:09 83° ENE 19:31:34 10° NNW
IGS 5A 4.0 19:27:42 24° SE 19:29:44 42° ENE 19:33:40 10° N
Cosmos 1633 4.0 19:26:59 10° NNE 19:29:45 20° ENE 19:30:05 20° E
Cosmos 1356 3.9 19:27:56 10° N 19:31:13 41° ENE 19:32:13 32° ESE
Lacrosse 5 rocket 3.9 19:28:22 10° WNW 19:31:22 19° NNW 19:34:29 10° NNE
ATLAS 5 CENTAUR R/B 1.3 19:30:44 10° NW 19:32:33 45° SW 19:33:14 32° S
Abrixas rocket 3.7 19:32:17 10° SW 19:32:30 12° SW 19:32:30 12° SW
Cosmos 405 Rocket 2.9 19:31:39 10° N 19:35:37 54° ENE 19:37:21 29° SE
Cosmos 1140 Rocket 4.3 19:38:38 26° ESE 19:39:32 27° E 19:43:49 10° NE
IRIDIUM 106 4.5 19:36:08 19° SSE 19:39:42 52° E 19:44:45 10° NNE
SJ-6B 4.3 19:37:37 10° SSW 19:41:00 33° W 19:44:25 10° NNW
Cosmos 2279 Rocket 4.0 19:34:57 10° S 19:41:02 63° E 19:47:09 10° NNE
SPOT 5 4.4 19:40:17 17° ENE 19:41:22 18° ENE 19:44:32 10° NNE
Cosmos 2237 Rocket 2.7 19:37:34 10° NNW 19:42:58 44° ENE 19:45:36 27° ESE
Spot 2 Rocket 4.4 19:41:32 25° ESE 19:43:24 32° ENE 19:47:54 10° N
Exosat Rocket 3.8 19:37:13 10° NNW 19:43:45 86° WSW 19:47:11 22° SSE
BREEZE-M DEB (TANK) 3.7 19:39:22 10° W 19:44:00 81° N 19:48:44 14° E
BREEZE-M DEB (TANK) 4.5 19:42:25 10° W 19:45:45 62° N 19:55:03 10° ENE
SL-8 R/B 3.7 19:41:57 10° WNW 19:46:48 82° SSW 19:48:58 33° ESE
CZ-2C R/B 3.8 19:44:39 10° NNE 19:48:58 48° E 19:50:38 31° SSE
OBJECT-B 3.1 19:46:53 10° SSW 19:49:29 22° W 19:52:06 10° NW
Cosmos 2026 Rocket 4.2 19:44:05 10° NNW 19:50:06 68° W 19:56:09 10° S
Terra 3.5 19:50:06 16° ENE 19:50:57 17° ENE 19:54:00 10° NNE
MetOp-B 4.1 19:52:09 29° SSE 19:54:54 67° ENE 20:00:14 10° N
Cosmos 2227 Rocket 2.8 19:57:04 32° ESE 19:57:43 33° ESE 20:02:44 10° NE
SPOT 1/Viking Rocket 3.7 19:58:13 35° SE 20:00:16 58° ENE 20:05:25 10° N
Cosmos 389 Rocket 2.3 20:00:14 41° S 20:01:22 89° WSW 20:04:56 10° N
Cosmos 2251 Rocket 3.9 19:56:14 10° SSW 20:01:34 67° WNW 20:06:55 10° NNE
Cosmos 2297 Rocket 2.3 20:02:12 27° SSE 20:05:01 49° ESE 20:10:27 10° NE
Cosmos 2333 Rocket 3.5 20:01:08 10° NW 20:06:19 36° WSW 20:10:56 12° SSW
SPOT 3 Rocket 3.7 20:03:45 25° S 20:06:48 74° WSW 20:12:00 10° NNW
Cosmos 2266 Rocket 4.2 20:01:08 10° N 20:07:24 54° ENE 20:09:47 36° SE
Cosmos 2219 3.4 20:05:52 34° SSE 20:07:41 46° ESE 20:13:02 10° NE
Cosmos 1190 Rocket 4.3 20:07:40 41° ESE 20:08:19 43° ESE 20:13:15 10° NNE
BREEZE-M DEB (TANK) 2.6 20:06:24 10° WNW 20:08:17 44° NNW 20:08:17 44° NNW
ATLAS 2AS CENTAUR R/B 4.0 20:01:23 10° WSW 20:08:59 48° NW 20:16:28 10° NNE
Cosmos 1825 3.9 20:05:58 10° NNW 20:09:18 30° W 20:11:58 14° SSW
ARIANE 5 R/B 2.9 20:09:19 45° E 20:09:57 49° ENE 20:14:12 10° N
Ariane Rocket 4.5 20:07:55 10° SSW 20:12:28 33° W 20:17:02 10° NNW
Timation 2 Rocket 4.2 20:10:14 27° SSE 20:13:31 49° ESE 20:19:36 10° NE
Meteor 2-21 Rocket 4.5 20:08:15 10° N 20:14:15 61° ENE 20:16:20 40° SE
RESURS DK-1 4.3 20:18:10 10° WSW 20:21:50 30° NW 20:25:32 10° N
Landsat 7 4.1 20:20:37 35° S 20:22:32 63° W 20:27:16 10° NNW
USA 245 3.1 20:24:37 82° S 20:24:47 89° W 20:28:17 10° NNW
Genesis I 4.1 20:21:36 10° NNW 20:25:22 39° NE 20:25:22 39° NE
Cosmos-2242 2.9 20:25:50 70° E 20:25:53 70° E 20:30:11 10° NNE
Meteor 2-16 Rocket 4.4 20:21:36 10° N 20:27:45 66° E 20:29:25 47° SE
Cosmos 1655 Rocket 4.0 20:28:59 10° N 20:35:18 82° W 20:37:46 40° S
SL-16 R/B 2.8 20:31:34 10° NNW 20:37:00 43° ENE 20:37:53 40° E
Cosmos 1980 3.8 20:32:36 10° NNW 20:38:16 69° WSW 20:39:45 48° S
Cosmos 2151 3.4 20:40:40 10° NNW 20:44:54 55° W 20:45:17 53° WSW
Meteor 2-3 Rocket 3.8 20:41:19 10° NNW 20:47:05 78° W 20:48:26 54° S
Cosmos 2344 4.4 20:40:07 10° WSW 20:47:17 50° NW 20:55:08 10° NE
USA 215 3.2 20:45:38 50° SSE 20:47:27 75° SW 20:54:01 10° NW
Meteor 1-27 4.1 20:47:48 61° S 20:48:51 81° E 20:54:40 10° NNE
ATLAS 3B R/B 3.7 20:43:43 10° NW 20:50:11 39° WSW 20:53:12 28° SSW
Resurs 01 Rocket 3.7 20:50:18 17° SW 20:52:21 22° W 20:55:52 10° NW
ERS-1 Rocket 2.8 20:54:40 84° SSE 20:54:51 90° ENE 20:59:54 10° NNW
Cosmos 407 Rocket 4.0 20:53:35 24° SW 20:56:34 56° WNW 21:01:40 10° NNE
Okean 3 Rocket 3.8 20:55:24 10° N 20:59:21 66° N 20:59:21 66° N
CARTOSAT-1 4.2 21:04:22 51° W 21:04:22 51° W 21:08:19 10° NNW
Cosmos 1766 Rocket 4.0 20:59:58 10° N 21:03:29 58° NNW 21:03:29 58° NNW
Meteor 2-15 4.3 21:09:37 71° E 21:09:41 71° E 21:15:43 10° NNE
Cosmos 1954 Rocket 4.0 21:12:17 75° N 21:12:17 75° N 21:17:01 10° NNE
Lacrosse 5 rocket 4.0 21:09:02 10° NNW 21:11:54 17° N 21:14:11 12° NE
COSMOS 2455 2.9 21:18:15 64° ENE 21:18:15 64° ENE 21:23:28 10° NE
SPOT 5 3.4 21:19:30 50° WNW 21:19:30 50° WNW 21:23:36 10° NNW
Cosmos 2237 Rocket 3.4 21:21:59 10° NW 21:26:49 30° WSW 21:27:26 29° WSW
SeaSat 1 4.1 21:22:35 10° NE 21:24:38 24° NE 21:24:38 24° NE
Terra 2.4 21:28:59 54° WNW 21:28:59 54° WNW 21:32:57 10° NNW
Timation 1 Rocket 4.3 21:33:37 81° WNW 21:33:37 81° WNW 21:39:38 10° NNE
Cosmos 2082 3.8 21:39:13 70° NNW 21:39:13 70° NNW 21:44:22 10° NNE
Cosmos 2263 Rocket 3.9 21:42:46 22° NE 21:42:46 22° NE 21:44:58 10° NE
Cosmos 2227 Rocket 3.3 21:38:46 24° WSW 21:41:39 40° NW 21:46:59 10° NNE
USA 229 DEB 4.4 21:37:27 10° NNW 21:44:29 50° NE 21:46:08 43° E
USA 229 4.4 21:37:32 10° NNW 21:44:35 49° NE 21:46:15 43° E
Cosmos 2297 Rocket 3.9 21:44:25 10° WSW 21:49:18 29° NW 21:54:13 10° N
Cosmos 841 Rocket 4.4 21:47:36 10° NNW 21:51:30 44° NNE 21:51:30 44° NNE
Cosmos 1745 Rocket 4.1 21:50:50 10° N 21:56:33 67° NE 21:56:33 67° NE
NOSS 3-1 (A) 4.4 21:55:07 10° NNW 22:02:27 58° NE 22:04:04 50° E
S3M 4.2 22:08:54 69° NNE 22:08:54 69° NNE 22:14:31 10° N
SL-16 R/B 3.6 22:16:00 10° NW 22:19:46 29° W 22:19:46 29° W
NOSS 3-1 (C) 4.0 22:21:06 10° NW 22:28:42 78° SW 22:28:43 78° SW
Cosmos 1943 4.2 22:45:19 10° NNW 22:48:59 41° NW 22:48:59 41° NW
Lacrosse 5 rocket 3.9 22:48:02 10° NW 22:49:47 21° NNW 22:49:47 21° NNW
SeaSat 1 4.2 23:00:31 10° N 23:04:24 28° NW 23:04:24 28° NW
Cosmos 2315 Rocket 4.5 23:10:31 57° NW 23:10:31 57° NW 23:15:49 10° N
Cosmos 2263 Rocket 3.4 23:24:25 34° NW 23:24:25 34° NW 23:28:54 10° NNE
USA 281 3.3 23:33:03 71° N 23:33:03 71° N 23:38:56 10° NNW
Cosmos 1844 Rocket 3.7 23:39:31 40° NE 23:39:31 40° NE 23:43:04 10° NNE
Cosmos 2074 Rocket 4.4 23:38:24 10° N 23:43:22 57° NNW 23:43:22 57° NNW
SJ 16-02 4.1 23:56:01 12° ENE 23:56:01 12° ENE 23:56:35 10° ENE
